TEVEL-1 (51013 NORAD) Tracking and Keplerian Element Data

This shows tracking and keplerian element data for the satellite.

Feedback or suggestion? Click here.




ElementValue
Catalog51013
NameTEVEL-1
Epoch Orbit4716
Epoch Day325.25442824
Epoch Year2022
RAAN29.6575
Inclination97.4636
Eccentricity0.0007862
Argument of Perigee235.0975
Mean Anonmoly195.6032
Mean Motion15.16864792
Decay Rate8.111E-05
L11 51013U 22002AF 22325.25442824 .00008111 00000+0 41502-3 0 9996
L22 51013 97.4636 29.6575 0007862 235.0975 195.6032 15.16864792 47168



Live tracking and technical data element details for TEVEL-1 (NORAD 51013). TEVEL-1 can be tracked NOW for your location showing map with azimuth and elevation plus other details from your city location.







IsCatalogInMostPopularTable: catalog: 51013, numindb: 32
Update: records affected: 1



GetName: 51013 TEVEL-1

Hit Count: updated at: Fri, 02 Dec 2022 12:34:05 GMT